Regional Weather Roundup
Issued by NWS

Home | Current Version | Previous Version | Graphics & Text | Print | Product List | Glossary On
Versions: 1 2 3 4 5 6 7 8 9 10 11 12 13 14 15 16 17 18 19 20 21 22 23 24 25 26 27 28
000
ASUS45 KBOU 240807
RWRCO

WEATHER ROUNDUP FOR COLORADO
NATIONAL WEATHER SERVICE DENVER/BOULDER CO
200 AM MDT FRI OCT 24 2014

NOTE: "FAIR" INDICATES FEW OR NO CLOUDS BELOW 12000 FEET WITH NO
SIGNIFICANT WEATHER AND/OR OBSTRUCTIONS TO VISIBILITY.

COZ001>005-013-030-031-240900-
...NORTHWEST COLORADO...

CITY           SKY/WX    TMP DP  RH WIND       PRES   REMARKS
CRAIG          PTCLDY    35  30  82 SE3       30.26S
HAYDEN         PTCLDY    41  28  60 SE3       30.27S
MEEKER         PTCLDY    45  33  63 E3        30.27S
MOUNT WERNER   NOT AVBL
STEAMBOAT SPGS PTCLDY    39  31  74 CALM      30.29S
WALDEN         MOCLDY    46  23  39 SE10G17   30.30F
$$

COZ006>008-011-240900-
...WEST CENTRAL VALLEYS...

CITY           SKY/WX    TMP DP  RH WIND       PRES   REMARKS
GRAND JUNCTION CLEAR     52  37  56 E13       30.22S
MONTROSE       CLEAR     46  34  62 SE8       30.31R
EAGLE          NOT AVBL
RIFLE          CLEAR     43  37  79 CALM      30.29R
DELTA          CLEAR     47  35  62 CALM      30.28S
NUCLA          CLEAR     46  32  57 CALM      30.34R
$$

COZ017>023-064>068-240900-
...SOUTHWEST COLORADO...

CITY           SKY/WX    TMP DP  RH WIND       PRES   REMARKS
DURANGO        PTCLDY    38  34  85 N5        30.35F
CORTEZ         CLEAR     35  29  78 CALM      30.32S
PAGOSA SPRINGS PTCLDY    38  36  91 CALM      30.41F
TELLURIDE      CLEAR     42  27  55 CALM      30.49S
WOLF CREEK PAS CLEAR     34  32  93 SW8         N/A  WCI  27
$$

COZ009-010-012-014-032>034-037-058>063-240900-
...CENTRAL COLORADO...

CITY           SKY/WX    TMP DP  RH WIND       PRES   REMARKS
ASPEN          CLEAR     37  26  64 S7        30.36F
BUENA VISTA    CLEAR     36  26  68 CALM      30.38S
COPPER MTN     CLEAR     41  12  30 S9        30.55S
BERTHOUD PASS  FAIR      34  32  93 NW35G49   30.52S WCI  19
COTTONWOOD PAS CLEAR     50  10  20 W3        30.46S
GUNNISON       PTCLDY    32  25  74 CALM      30.46R
KREMMLING      CLEAR     34  30  86 CALM        N/A
LEADVILLE      CLEAR     32  21  64 S3        30.45S
MONARCH PASS   PTCLDY    34  23  64 SW26      30.67R WCI  21
SALIDA         CLEAR     48  28  45 NW13      30.43R
SUNLIGHT       CLEAR     37  28  70 CALM      30.51S
WILKERSON PASS NOT AVBL
$$

COZ069>075-240900-
...SAN LUIS VALLEY/SANGRE DE CRISTO MOUNTAINS...

CITY           SKY/WX    TMP DP  RH WIND       PRES   REMARKS
ALAMOSA        PTCLDY    29  25  85 CALM      30.39R
LA VETA PASS   CLEAR     43  28  56 S18G35    30.44S
SAGUACHE       PTCLDY    41  28  60 N12       30.40S
$$

COZ035-036-038>040-240900-
...NORTHERN COLORADO FRONT RANGE...

CITY           SKY/WX    TMP DP  RH WIND       PRES   REMARKS
DENVER INTL AP CLOUDY    56  30  37 S9        30.13S
DMNS CITY PARK   N/A     55  31  39 SW3       30.13R
AURORA         MOCLDY    57  29  35 S13       30.15S
FRONT RANGE AP CLOUDY    55  34  44 S13       30.15S
ERIE MUNI ARPT CLOUDY    66  24  20 W7G16     30.11R
BOULDER MUN AP CLOUDY    68  23  18 W17G24    30.10S
CENTENNIAL     CLOUDY    58  28  32 S8        30.16S
BROOMFIELD     CLOUDY    68  21  17 SW14G20   30.15S
FORT COLLINS   CLOUDY    48  36  61 N3        30.13S
LONGMONT       CLOUDY    54  37  52 CALM      30.13R
$$

COZ041-046-047-076>085-087-088-240900-
...PIKES PEAK/PALMER DIVIDE AND SOUTHERN FOOTHILLS...

CITY           SKY/WX    TMP DP  RH WIND       PRES   REMARKS
COLO. SPRINGS  MOCLDY    45  33  63 N10       30.21F
A. F. ACADEMY  CLOUDY    48  31  51 VRB2      30.22S
ELLICOTT       NOT AVBL
FALCON         MOCLDY    45  31  57 CALM      30.26S
FORT CARSON    MOCLDY    48  33  55 NW9       30.18F
LIMON          PTCLDY    50  34  54 VRB5      30.16F
MONUMENT HILL  CLOUDY    54  27  35 SW10      30.23S
TRINIDAD       CLEAR     55  35  47 W17       30.20S
$$

COZ042>045-048>051-090-091-240900-
...NORTHEAST COLORADO...

CITY           SKY/WX    TMP DP  RH WIND       PRES   REMARKS
GREELEY ARPT   CLOUDY    46  34  61 NW3       30.11S
AKRON          PTCLDY    53  36  52 SW10      30.09S
BURLINGTON     CLEAR     53  45  74 SW10      30.10S
WRAY           PTCLDY    54  40  58 SW12      30.05S
STERLING       PTCLDY    43  36  75 S5        30.07R
HOLYOKE        PTCLDY    54  39  58 SW7       30.04S
FORT MORGAN    PTCLDY    45  33  61 W5        30.09S
$$

COZ086-089-092>099-240900-
...SOUTHEAST COLORADO...

CITY           SKY/WX    TMP DP  RH WIND       PRES   REMARKS
PUEBLO         PTCLDY    46  33  60 W3        30.15S
LA JUNTA       CLEAR     52  38  58 SW9       30.12S
LAMAR          CLEAR     45  39  79 SW6       30.09F
SPRINGFIELD      N/A     50  46  86 CALM      30.14S
$$



USA.gov is the U.S. government's official web portal to all federal, state and local government web resources and services.